Retour au catalogue

STARLINK-6134

ActifCommunicationsVLEO
NORAD 57110·PAYLOAD·🇺🇸 United States

Lancé Jun 23, 2023 depuis Cape Canaveral Space Force Station

Loading…

Prochains Passages (prochaines 24 heures)

TLE

FraisSource: CelesTrak SupGP

Époque: Sep 14, 2026, 20:51 UTC

1 57110C 23090K   26257.86923611 -.00016529  00000+0 -59886-3 0  2576
2 57110  43.0005 293.1236 0001400 263.5842 165.6608 15.27576948    16

Suivez STARLINK-6134 en temps réel avec AllMySat

Download on the App Store